星链-37162(STARLINK-37162)

导读

STARLINK-37162(NORAD编号:68262)是美国太空探索技术公司(SpaceX)星链(Starlink)星座的低轨互联网通信卫星,归属Starlink项目。 该卫星运行在近地轨道,轨道倾角约43度,近地点约355公里,远地点约357公里,轨道周期约91.7分钟,属于V1.0卫星平台,由SpaceX自主研发制造,运营商为SpaceX。 作为星链全球卫星互联网项目的一员,它承担为全球偏远地区、海洋与航空等场景提供低延迟高速互联网接入服务的任务,助力缩小全球数字鸿沟,同时也可支持军事通信等特殊领域应用。

Basic Information
目录编号:
68262
目录名称:
STARLINK-37162
国际标识:
2026-055A
轨道中心:
EARTH
卫星名称:
星链-37162
卫星全名:
星链-37162(STARLINK-37162)
卫星状态:
在轨 (已飞行176 天)
发射日期:
2026-03-19 UTC
国别 :
美国 (US)
星等 :
--
This satellite is enrolled in the Space Conjunction Data Service (SCDS) and the current flight risk assessment level is: No High Risk
Orbit Information
数据来源 国际轨道数据
星历时间: 2026-09-11T13:04:40+0800
12小时前
查看轨道信息
半长轴: 6840.801km
偏心率: 0.0001373
轨道倾角: 53.160°
近地点辐角 93.339°
升交点赤经 173.388°
平近点角 266.777°
近地点: 461.724km
远地点: 463.604km
周期: 93.847分钟
每日圈数: 15.344135
Detailed Information
固有亮度:
5
最大亮度:
2.5
卫星平台:
Starlink V1.0
覆盖范围:
全球
运营商:
太空探索技术公司
运营商所在国:
美国
制造商(研发单位):
太空探索技术公司
制造商所在国:
美国
使用方式:
暂无
Satellite Introduction
Starlink 计划是 SpaceX 推出的全球卫星互联网项目,通过发射低轨道卫星,为全球尤其是偏远地区提供高速、低延迟的互联网服务。自 2019 年起,Starlink 已部署数千颗卫星,旨在缩小全球数字鸿沟,推动互联网普及。该项目还为军事、航空等行业提供通信支持,带来广泛经济效益。
2D Orbit Map
3D Orbit Map
Orbit Altitude Analysis Chart
Orbit Inclination Analysis Chart
Orbit Comprehensive Analysis Chart
View Comprehensive Chart
Conjunction Data List
Event ID Objects TCA Miss Dist (km) Collision Risk Probability Collision Risk Index (CRI) Action
CDM_260914-054105-229606-826221
2026-09-14T
05:41:55+0000
0.687 km
远距离
7.882349E-5 中风险 0.73
CDM_260912-124706-826206-855622
2026-09-12T
12:47:26+0000
0.580 km
远距离
6.815029E-5 中风险 0.72
CDM_260912-054506-826206-855622
2026-09-12T
05:45:23+0000
0.890 km
远距离
1.767379E-5 中风险 0.6
CDM_260913-134405-111006-826221
2026-09-13T
13:44:15+0000
0.627 km
远距离
1.736294E-5 中风险 0.6
CDM_260912-011706-051306-826224
2026-09-12T
01:17:41+0000
1.411 km
极远距离
8.185019E-6 低风险 0.53
CDM_260913-235105-291306-826221
2026-09-13T
23:51:55+0000
1.383 km
极远距离
7.138558E-6 低风险 0.52
CDM_260909-085606-243606-826221
2026-09-09T
08:56:23+0000
1.154 km
极远距离
4.397257E-6 低风险 0.48
CDM_260909-103006-243606-826221
2026-09-09T
10:30:10+0000
1.169 km
极远距离
4.21179E-6 低风险 0.47
CDM_260913-125705-111006-826221
2026-09-13T
12:57:21+0000
0.979 km
远距离
3.889657E-6 低风险 0.47
CDM_260913-191405-306406-826221
2026-09-13T
19:14:35+0000
1.857 km
极远距离
2.899547E-6 低风险 0.44
Miss Distance Evolution Trend with All Objects
Collision Probability Evolution Trend with All Objects